Location: ??? ???
(33.6307°N, 35.4961°E)
Time: 05:34:24
(UTC+00:00)

Daily predictions for brighter satellites

Satellite Brightness Start Highest point End
(mag) Time Altitude Azimuth Time Altitude Azimuth Time Altitude Azimuth
ATLAS 3B CENTAUR R/B 4.4 01:19:13 37° SSE 01:19:13 37° SSE 01:29:05 10° SE
Atlas Centaur 2 4.0 01:23:28 35° SE 01:23:28 35° SE 01:29:41 10° E
Cosmos 2333 Rocket 4.3 01:50:00 17° NNE 01:50:00 17° NNE 01:51:16 10° NNE
SJ 16-02 3.9 01:48:44 18° E 01:48:44 18° E 01:50:29 10° ESE
Cosmos 2219 Rocket 4.1 01:51:36 20° NNE 01:51:36 20° NNE 01:53:15 10° NNE
CZ-3A R/B 4.3 01:50:16 48° SW 01:52:11 51° SSW 02:01:38 10° ESE
COSMOS 2428 3.8 02:07:54 37° NNE 02:07:54 37° NNE 02:11:13 10° NNE
Meteor 2-5 Rocket 4.3 02:15:18 49° S 02:15:18 49° S 02:19:23 10° S
GPS 2-04 Rocket1 4.4 02:20:44 34° E 02:20:44 34° E 02:23:10 10° E
SL-4 R/B 4.5 02:18:48 15° SE 02:19:39 16° SE 02:21:59 10° E
Cosmos 1455 Rocket 4.0 02:21:43 10° SSE 02:25:53 45° E 02:30:03 10° NNE
IRIDIUM 103 4.3 02:26:30 10° S 02:31:42 81° E 02:36:55 10° N
OAO 1 Rocket 4.3 02:31:57 88° ESE 02:31:57 88° ESE 02:37:15 10° E
USA 267 4.2 02:26:55 10° S 02:31:24 31° SSW 02:31:24 31° SSW
Cosmos 540 Rocket 4.4 02:28:55 10° S 02:33:45 46° ESE 02:38:38 10° NNE
ATLAS CENTAUR R/B 4.5 02:36:30 10° SE 02:37:59 12° ESE 02:39:27 10° E
Meteor 2-10 4.1 02:32:23 10° S 02:38:04 89° E 02:43:39 10° N
ADEOS 4.1 02:33:15 10° N 02:44:38 - SSW 02:36:55 45° N
Cosmos 1953 3.7 02:39:43 10° SSE 02:43:26 39° E 02:47:09 10° NNE
BREEZE M DEB (TANK) 4.2 02:44:47 16° ENE 02:44:47 16° ENE 02:45:29 10° ENE
Meteor 1-24 Rocket 3.6 02:45:24 56° WNW 02:46:04 61° W 02:51:39 10° S
ERS-2 3.7 02:42:59 10° SE 02:46:17 33° ENE 02:48:53 14° NNE
deb Chang Zheng 4 3.5 02:43:45 10° NNE 02:48:00 80° ESE 02:52:12 10° S
IRIDIUM 106 4.2 02:44:50 10° S 02:50:00 66° W 02:55:12 10° N
OAO 2 Rocket 3.1 02:49:34 66° WNW 02:50:09 77° N 02:55:05 10° E
Cosmos 1844 3.9 02:51:12 47° WSW 02:51:16 47° WSW 02:56:45 10° S
Meteor PRIRODA 3.9 02:48:45 10° NNE 02:52:21 64° E 02:55:56 10° S
SL-24 R/B 3.7 02:50:07 10° S 02:53:36 70° SW 02:53:36 70° SW
USA 276 2.8 02:55:59 53° ESE 02:55:59 53° ESE 02:58:31 10° SE
Cosmos 1461 3.8 02:59:06 38° NNW 02:59:06 38° NNW 03:02:45 10° NNE
Gbstr 26 Del rocket 4.4 02:53:38 15° SW 02:59:53 86° SE 03:08:00 10° NE
Cosmos 1763 Rocket 3.7 03:00:34 44° WNW 03:00:35 44° WNW 03:05:33 10° N
CZ-4B R/B 1.6 03:01:59 10° S 03:04:47 53° SSW 03:04:47 53° SSW
Cosmos 1689 Rocket 4.0 03:02:44 10° SE 03:05:19 29° ENE 03:07:54 10° NNE
Cosmos 841 Rocket 3.3 03:01:20 10° SSW 03:06:27 87° W 03:11:37 10° NNE
NOSS 0 Rocket 3.9 03:01:25 10° SSW 03:07:32 63° WNW 03:13:41 10° NNE
Cosmos 1892 Rocket 3.4 03:06:29 24° NNW 03:09:02 64° W 03:13:22 10° S
CZ-2C R/B 1.4 03:08:14 38° SW 03:09:39 68° SSE 03:13:36 10° E
Cosmos 1513 Rocket 4.5 03:04:12 10° SSW 03:10:26 59° W 03:16:37 10° N
Atlas Centaur 2 3.3 03:06:04 22° WSW 03:11:32 65° S 03:20:00 10° E
Cosmos 1844 Rocket 4.0 03:12:57 21° WSW 03:12:57 21° WSW 03:15:59 10° SSW
FALCON 9 R/B 2.4 03:09:57 23° WSW 03:12:21 32° SSW 03:14:57 10° SE
Cosmos 1898 Rocket 3.4 03:07:46 12° NNW 03:12:41 88° ENE 03:17:50 10° SSE
SL-16 R/B 3.9 03:08:45 10° SSE 03:13:47 34° ESE 03:18:50 10° NE
USA 306 4.0 03:10:54 10° SSW 03:14:55 44° SE 03:18:58 10° ENE
COSMO-SKYMED 1 2.6 03:14:24 10° S 03:18:39 57° W 03:22:20 14° NNW
Cosmos 1570 Rocket 3.9 03:13:48 10° SSW 03:19:00 82° WNW 03:24:15 10° NNE
Cosmos 2278 Rocket 2.6 03:16:10 10° NNW 03:21:49 63° ENE 03:27:24 10° SSE
Cosmos 1464 Rocket 4.1 03:16:44 10° SSW 03:22:36 49° W 03:28:31 10° N
SJ 16-02 2.5 03:25:48 23° WSW 03:25:48 23° WSW 03:28:53 10° SSW
Cosmos 2237 Rocket 2.2 03:20:47 10° SW 03:26:18 56° WNW 03:31:54 10° NNE
CZ-2C R/B 4.4 03:23:09 10° SE 03:27:40 31° ENE 03:32:15 10° N
Cosmos 1340 4.1 03:24:57 10° N 03:28:30 39° E 03:32:01 10° SSE
CZ-4B R/B 3.3 03:26:02 10° N 03:29:17 32° WNW 03:32:36 10° SW
Delta 142 4.5 03:27:07 16° WSW 03:30:08 42° S 03:34:52 10° ESE
Cosmos 2333 Rocket 4.0 03:32:03 12° NW 03:32:03 12° NW 03:33:16 10° NNW
Cosmos 1703 4.1 03:26:52 10° N 03:30:39 50° E 03:34:28 10° SSE
Cosmos 2219 Rocket 3.9 03:33:24 14° NW 03:33:24 14° NW 03:35:13 10° NNW
SAR-Lupe-4 3.4 03:28:59 10° S 03:32:32 73° WSW 03:36:08 10° NNW
BREEZE-M DEB (TANK) 3.3 03:26:05 10° SW 03:33:48 71° SE 03:36:28 10° NE
Lacrosse 4 Rocket 1.6 03:31:52 10° SSW 03:35:59 75° ESE 03:40:16 10° NNE
Cosmos 1544 Rocket 4.0 03:32:45 10° SSW 03:36:45 37° W 03:40:47 10° NNW
Cosmos 2208 Rocket 4.0 03:33:21 10° SSW 03:38:45 67° WNW 03:44:10 10° N
Lacrosse 5 rocket 3.5 03:37:40 10° N 03:40:11 17° NE 03:42:38 10° E
SAR-Lupe-1 4.2 03:39:53 10° S 03:43:22 51° W 03:46:52 10° NNW
Cosmos 1814 Rocket 4.1 03:38:37 10° SSW 03:43:37 52° WNW 03:48:37 10° N
H-2A R/B 3.4 03:40:23 10° NNW 03:43:39 30° WNW 03:46:56 10° SW
GEOS 3 Rocket 3.7 03:38:44 10° SSE 03:44:03 81° WSW 03:49:28 10° NW
Cosmos 1937 Rocket 3.5 03:42:18 10° NNW 03:47:29 60° WSW 03:52:35 10° S
Cosmos 372 Rocket 4.4 03:44:37 10° NNW 03:49:52 69° ENE 03:55:03 10° SSE
COSMOS 2428 4.3 03:50:01 13° WNW 03:50:25 13° NW 03:52:55 10° NNW
Cosmos 1400 Rocket 3.0 03:47:49 10° SSW 03:51:44 49° W 03:55:44 10° N
Envisat 3.1 03:47:24 10° N 03:52:17 50° WNW 03:57:10 10° SSW
Okean 1-7 Rocket 4.3 03:48:23 10° NNW 03:52:23 31° W 03:56:20 10° SSW
NOAA 6 4.0 03:51:49 10° N 03:56:58 65° WNW 04:02:05 10° SSW
Cosmos 1092 Rocket 4.0 03:51:09 10° N 03:57:20 90° W 04:03:31 10° S
Cosmos 1328 3.8 03:53:54 10° N 03:57:50 83° E 04:01:44 10° S
GPS 2-04 Rocket1 3.7 03:54:54 12° W 03:58:23 37° SSW 04:02:13 10° SE
SL-4 R/B 2.1 03:55:16 10° WSW 03:58:51 46° NW 04:02:44 10° NE
Cosmos 2228 3.6 03:55:48 10° S 04:00:00 62° E 04:04:12 10° NNE
Cosmos 1626 Rocket 3.8 03:57:14 10° NNW 04:01:34 50° W 04:05:52 10° SSW
NOSS 3-2 (A) 3.2 04:00:14 10° SW 04:05:38 67° WNW 04:11:44 10° NNE
MOS 1-B 4.3 04:00:01 10° N 04:05:45 69° WNW 04:11:28 10° SSW
YAOGAN 6 3.7 04:04:31 10° NNW 04:07:30 24° WNW 04:10:29 10° SW
SL-19 R/B 4.4 04:04:34 10° N 04:08:15 43° WNW 04:11:27 10° SW
Cosmos 1300 2.6 04:04:58 10° S 04:08:46 85° W 04:12:35 10° N
NOSS 3-2 (C) 3.4 04:09:39 10° SSW 04:15:04 82° ESE 04:21:08 10° NNE
Cosmos 44 Rocket 3.6 04:10:11 10° NW 04:15:18 57° WSW 04:20:21 10° SSE
Cosmos 1634 Rocket 4.0 04:10:11 10° SSW 04:16:14 60° W 04:22:20 10° N
